Wind_Speed
40 41 41 41 41 43 45 47 49 51 51 52 52 53 52 53 54 54 55 56 57 56 55 56 55 54 53 52 51 51 50 50 49 49 48 47 46 45 44 42 41 40 40
40 40 41 40 41 42 43 45 47 49 50 51 52 53 52 52 54 54 55 55 56 55 55 56 56 55 54 53 52 52 52 51 50 50 49 48 48 46 45 44 43 42 42
39 40 40 40 40 42 43 44 45 47 49 51 51 52 51 52 52 53 54 53 54 55 55 55 56 56 55 54 53 52 52 52 52 51 51 50 49 48 47 45 45 44 43
39 39 39 39 40 41 42 44 45 46 48 49 49 50 51 52 52 52 52 53 54 54 54 55 56 56 55 55 53 53 53 53 52 52 51 51 50 49 47 46 45 44 44
39 40 40 39 39 40 42 43 44 46 48 48 48 49 50 50 51 52 52 51 52 53 53 53 53 54 54 54 54 53 53 53 52 51 51 51 51 50 49 48 46 45 45
40 40 40 41 41 40 41 42 43 44 45 46 46 47 48 48 49 49 50 50 51 52 51 52 52 53 53 53 53 53 53 53 52 51 51 51 51 51 50 48 47 45 45
41 40 40 40 40 40 40 41 42 43 44 45 45 46 47 48 48 47 48 49 50 50 51 52 52 52 51 52 51 52 52 51 51 51 50 50 50 51 50 49 47 46 45
40 40 39 39 38 39 39 40 41 42 44 44 43 44 47 48 48 46 46 48 49 50 50 51 52 52 51 51 50 50 50 50 50 50 50 49 50 51 50 49 47 46 45
40 39 37 38 39 38 39 38 39 41 40 41 40 41 43 45 45 45 44 46 48 48 49 50 50 51 51 50 50 49 48 48 49 50 50 49 50 50 49 48 48 47 46
39 37 37 37 38 38 37 36 38 40 39 39 40 41 43 43 43 43 43 43 44 45 46 47 48 49 49 49 48 48 47 47 48 48 49 49 48 49 48 47 47 46 45
37 36 35 36 37 37 37 37 37 38 38 39 39 40 41 41 41 41 41 42 44 44 45 47 47 47 48 48 48 47 46 45 46 47 46 47 47 46 46 45 44 43 44
37 36 36 36 37 37 38 36 36 36 37 38 39 40 39 38 38 39 40 40 41 43 44 45 46 47 47 47 47 45 44 43 43 44 45 45 44 45 44 43 42 42 42
38 38 37 36 36 36 36 35 34 35 35 37 39 39 39 38 39 39 40 40 40 42 42 42 44 45 45 45 44 44 44 42 41 42 42 42 43 43 42 42 42 42 42
38 38 37 36 35 35 35 34 34 33 34 35 36 37 37 38 38 38 39 40 39 40 41 41 42 44 44 44 43 43 42 42 40 41 41 41 43 42 42 42 42 42 42
38 37 37 35 34 34 34 33 33 33 33 33 34 35 36 37 36 36 37 38 38 39 39 40 40 42 42 43 42 42 41 41 41 40 40 39 40 41 42 42 41 42 41
36 35 34 33 33 32 32 32 32 31 32 32 33 34 33 34 33 34 35 36 37 38 38 38 39 39 41 41 40 40 41 41 40 40 39 39 39 40 41 41 42 42 41
35 33 32 32 31 30 31 30 30 30 31 31 32 32 31 31 32 32 33 33 35 35 36 37 37 37 37 38 39 39 40 40 39 38 39 39 38 40 41 41 40 40 39
34 33 31 29 28 27 28 28 28 29 30 30 29 29 30 30 31 31 31 31 32 33 34 35 35 35 36 37 38 38 39 39 38 38 38 39 39 39 40 39 39 38 38
32 30 29 27 26 27 27 27 27 28 29 28 29 29 30 31 32 31 31 31 31 32 34 34 34 36 37 38 37 38 38 37 37 37 37 37 38 37 37 38 37 36 35
30 29 29 28 27 26 26 26 27 27 27 27 28 28 29 30 31 30 29 30 30 32 34 35 35 37 37 37 36 36 36 37 36 36 35 35 35 34 35 35 34 33 33
29 29 28 27 27 26 26 26 26 25 26 26 27 27 28 28 29 30 29 30 30 32 32 34 36 36 36 36 36 35 34 35 35 35 34 34 33 33 33 32 31 31 32
29 28 28 28 27 26 25 26 26 26 26 26 26 26 27 28 28 30 30 29 29 29 30 32 33 34 34 33 34 33 32 32 33 33 33 32 31 31 31 30 30 31 32
28 28 28 27 26 25 25 26 26 26 25 26 25 26 27 27 27 28 29 28 28 29 29 30 31 31 32 32 32 33 32 31 31 31 31 31 30 30 30 29 29 30 31
28 28 27 26 25 25 24 25 25 25 24 24 24 25 26 26 26 26 27 27 27 28 27 28 29 30 30 30 30 30 30 30 30 30 31 31 30 30 29 29 29 29 29
27 27 26 25 24 24 23 22 22 23 24 24 24 24 24 25 25 26 26 27 27 26 25 26 27 27 28 28 28 28 29 29 30 30 30 29 29 29 29 29 28 28 28
26 26 25 24 23 23 23 22 22 22 23 24 24 24 24 24 25 25 26 27 26 25 24 24 25 25 26 27 27 28 29 28 29 29 29 29 29 28 28 28 28 27 27
Wind_Direction
277 277 275 272 267 263 257 253 251 250 251 251 250 250 251 250 250 248 248 247 248 248 249 249 248 249 250 251 251 251 251 251 252 253 253 253 254 254 255 257 257 261 263
278 278 276 272 269 265 258 253 251 251 252 253 252 251 251 250 249 249 248 247 248 248 248 249 249 248 248 249 250 251 250 250 251 252 252 253 253 253 254 256 257 259 262
279 277 277 275 271 266 262 258 254 253 253 253 253 252 251 250 249 249 248 248 248 248 248 248 248 247 247 247 248 249 249 250 250 251 251 252 252 252 253 255 256 258 261
280 279 278 276 274 269 263 258 255 255 255 253 254 254 253 253 251 250 249 249 249 249 248 248 248 247 246 246 247 248 249 249 249 250 251 252 251 252 252 254 256 258 260
283 281 278 278 277 273 265 259 257 256 255 255 255 255 254 253 252 250 250 250 249 247 248 248 248 247 245 245 246 247 248 248 248 249 251 251 251 251 253 254 255 257 259
285 284 280 278 278 275 266 260 259 258 256 255 254 255 254 253 252 251 250 250 248 246 247 246 246 246 246 245 246 247 247 247 247 248 250 251 250 251 252 253 256 256 258
286 286 283 280 278 275 268 262 261 260 257 256 255 256 254 253 251 251 251 249 247 246 246 247 246 245 245 245 246 247 246 246 247 248 249 250 250 249 250 252 255 257 258
288 288 284 281 279 277 271 264 262 261 257 256 257 256 253 252 251 252 251 249 248 246 246 246 245 243 243 244 245 246 246 246 246 247 248 249 249 249 249 251 254 257 258
289 287 284 282 280 277 271 266 264 260 256 255 256 255 253 251 251 251 251 250 247 246 246 245 244 242 241 243 245 246 246 246 246 247 248 248 248 248 250 251 253 256 258
287 286 284 282 279 274 269 268 265 258 255 256 256 255 253 250 249 250 251 249 248 248 246 244 242 242 242 242 244 245 247 247 247 247 247 248 247 248 249 250 253 256 259
287 285 283 281 280 275 270 272 265 258 256 257 257 256 254 251 250 250 250 250 249 247 246 244 242 241 241 242 243 244 245 246 246 246 246 247 247 247 247 250 253 257 259
286 284 283 281 280 277 272 271 264 259 258 257 256 255 254 250 249 250 250 250 249 247 246 244 242 240 240 240 242 242 243 245 245 245 245 245 245 246 247 249 252 256 258
284 284 283 281 278 275 272 269 265 262 258 255 255 254 253 250 250 250 249 248 247 247 246 244 242 240 240 240 241 241 243 244 244 243 242 244 245 247 249 250 252 255 257
285 284 283 280 278 274 270 267 265 263 259 256 253 253 252 249 250 250 248 247 246 247 246 244 243 241 239 238 239 240 242 242 243 242 242 244 246 248 249 249 252 255 257
285 284 282 280 276 272 269 266 265 265 260 256 254 253 251 249 249 248 246 246 246 246 245 242 243 240 238 237 240 239 240 241 242 242 242 245 247 248 248 249 253 255 256
286 284 282 280 276 271 267 266 265 264 261 257 254 252 251 251 249 247 246 247 245 242 241 240 240 239 238 238 237 239 240 240 241 242 243 245 246 248 247 249 252 253 256
285 283 281 279 275 269 266 265 264 261 259 257 253 251 251 252 250 247 246 244 242 239 238 240 239 237 236 235 236 238 239 239 239 242 243 245 246 247 248 250 251 254 256
286 284 281 276 272 268 265 265 263 261 257 255 254 252 251 250 249 247 245 243 240 240 241 242 239 236 235 235 236 237 238 237 240 242 243 245 247 249 249 249 252 254 255
284 282 278 275 273 271 266 264 262 260 257 256 254 253 252 249 247 246 245 244 241 241 241 241 240 238 236 235 234 235 237 239 241 242 244 247 249 248 248 249 252 254 256
280 278 278 277 274 271 266 263 260 257 255 253 252 252 251 248 245 244 244 244 242 240 241 240 240 238 236 235 236 237 239 239 241 242 244 245 246 246 247 249 251 255 258
280 279 278 276 274 270 267 262 260 257 254 252 251 251 249 247 245 243 244 244 243 241 240 240 240 238 238 237 237 239 240 240 241 242 242 241 242 245 247 250 253 256 258
276 275 274 274 272 269 265 261 259 258 255 252 250 249 248 247 246 244 243 242 242 241 240 241 240 237 237 238 237 237 237 239 240 239 237 238 241 244 248 251 252 255 258
274 273 272 272 270 266 263 260 259 258 256 252 249 248 246 245 246 245 243 241 241 241 240 239 236 235 235 235 234 233 234 237 238 236 235 237 240 242 246 248 251 253 257
274 272 271 271 268 264 261 260 258 257 255 252 251 249 247 246 245 244 242 241 241 240 239 236 234 232 231 231 229 229 233 235 234 234 235 237 239 241 244 248 250 253 257
271 270 269 267 264 263 262 259 256 254 252 251 252 250 248 246 245 244 242 239 238 237 236 232 228 229 229 229 230 232 234 235 235 236 237 239 240 241 244 247 250 253 257
270 269 268 265 263 261 260 258 257 255 254 254 252 250 248 246 244 243 242 238 235 234 233 231 230 231 230 230 232 233 235 235 236 237 239 239 240 243 245 247 250 254 256
Height
5659 5656 5654 5652 5651 5651 5653 5655 5658 5662 5665 5669 5673 5676 5677 5680 5684 5687 5690 5694 5698 5702 5706 5710 5714 5718 5721 5725 5728 5730 5733 5736 5739 5741 5744 5746 5749 5751 5753 5756 5757 5758 5759
5647 5645 5642 5641 5640 5640 5641 5644 5646 5649 5652 5655 5659 5662 5664 5667 5670 5673 5676 5680 5684 5688 5692 5696 5700 5703 5707 5711 5715 5717 5720 5724 5727 5730 5732 5735 5738 5740 5743 5746 5748 5749 5750
5637 5634 5632 5630 5630 5630 5630 5632 5634 5636 5639 5641 5645 5648 5650 5653 5656 5659 5663 5667 5670 5673 5678 5681 5685 5689 5693 5697 5701 5704 5708 5711 5715 5717 5720 5724 5727 5730 5733 5736 5738 5740 5741
5626 5624 5622 5620 5619 5619 5619 5620 5622 5624 5626 5628 5631 5634 5637 5640 5644 5646 5650 5653 5656 5659 5663 5667 5670 5674 5679 5683 5688 5691 5695 5698 5702 5705 5708 5712 5716 5719 5723 5726 5728 5730 5731
5616 5613 5611 5610 5609 5608 5607 5608 5610 5612 5614 5616 5618 5622 5624 5627 5630 5633 5636 5639 5642 5646 5649 5653 5656 5660 5665 5670 5674 5678 5681 5685 5689 5693 5696 5699 5703 5707 5711 5715 5718 5719 5721
5606 5603 5601 5599 5598 5596 5596 5597 5599 5601 5603 5605 5607 5609 5612 5614 5617 5619 5623 5626 5629 5632 5636 5639 5643 5647 5651 5656 5660 5664 5668 5672 5676 5680 5684 5688 5692 5696 5700 5704 5707 5709 5711
5596 5593 5591 5589 5587 5585 5585 5586 5587 5589 5591 5593 5595 5597 5599 5602 5604 5607 5610 5613 5616 5620 5623 5626 5630 5634 5638 5643 5647 5651 5655 5659 5663 5668 5672 5676 5680 5685 5689 5692 5695 5698 5701
5586 5583 5580 5579 5577 5575 5574 5575 5576 5578 5580 5582 5584 5585 5587 5590 5593 5595 5598 5601 5604 5607 5610 5613 5617 5621 5625 5630 5634 5638 5643 5647 5651 5655 5660 5664 5669 5673 5677 5682 5685 5688 5691
5576 5573 5571 5569 5567 5565 5564 5565 5565 5567 5569 5571 5573 5574 5575 5578 5581 5583 5586 5589 5591 5594 5597 5600 5604 5608 5613 5617 5621 5626 5631 5635 5640 5644 5648 5652 5657 5662 5666 5671 5674 5678 5680
5566 5564 5561 5559 5557 5555 5555 5555 5556 5557 5559 5561 5562 5564 5565 5567 5569 5572 5575 5577 5579 5582 5585 5589 5593 5597 5601 5606 5610 5615 5620 5624 5628 5632 5637 5641 5646 5651 5655 5660 5663 5666 5669
5556 5554 5552 5550 5548 5547 5546 5546 5546 5547 5549 5550 5552 5553 5555 5556 5558 5561 5564 5566 5568 5571 5574 5577 5581 5585 5590 5595 5599 5604 5609 5613 5617 5621 5626 5631 5636 5641 5645 5649 5653 5656 5659
5546 5544 5542 5540 5538 5537 5536 5536 5536 5537 5539 5541 5542 5543 5544 5546 5548 5550 5553 5555 5558 5561 5563 5566 5570 5574 5579 5584 5589 5594 5599 5603 5607 5612 5616 5621 5626 5631 5635 5640 5643 5646 5649
5536 5533 5531 5529 5528 5527 5526 5526 5527 5528 5530 5531 5532 5533 5534 5536 5538 5540 5543 5545 5547 5550 5553 5556 5560 5564 5569 5574 5579 5584 5589 5593 5597 5602 5607 5612 5616 5621 5626 5630 5634 5636 5639
5525 5522 5520 5518 5517 5517 5516 5517 5518 5519 5519 5520 5522 5524 5525 5527 5529 5531 5533 5535 5537 5540 5543 5546 5550 5554 5559 5564 5569 5574 5579 5584 5588 5593 5598 5603 5608 5613 5617 5621 5624 5626 5629
5515 5512 5509 5508 5507 5507 5507 5508 5509 5510 5510 5511 5513 5514 5516 5518 5520 5522 5523 5525 5528 5530 5533 5537 5541 5545 5550 5555 5560 5565 5570 5575 5580 5585 5590 5594 5599 5603 5607 5611 5614 5617 5619
5505 5503 5501 5499 5498 5498 5498 5499 5500 5501 5501 5502 5504 5506 5507 5509 5511 5513 5515 5517 5518 5521 5524 5528 5532 5536 5541 5546 5552 5556 5562 5567 5572 5576 5581 5585 5589 5593 5597 5601 5604 5608 5610
5497 5495 5493 5492 5490 5490 5491 5492 5492 5493 5494 5495 5496 5497 5499 5501 5503 5505 5506 5508 5510 5513 5516 5520 5524 5528 5533 5538 5543 5548 5553 5558 5563 5567 5572 5576 5580 5584 5587 5591 5594 5597 5600
5489 5487 5486 5485 5484 5484 5484 5485 5485 5485 5486 5487 5488 5489 5491 5493 5495 5497 5499 5501 5503 5506 5509 5513 5517 5521 5526 5530 5535 5540 5545 5550 5554 5559 5563 5567 5571 5575 5578 5582 5585 5588 5590
5481 5480 5479 5478 5478 5477 5477 5477 5478 5478 5479 5480 5481 5482 5484 5486 5488 5489 5492 5494 5496 5499 5503 5506 5509 5514 5518 5522 5527 5531 5536 5541 5545 5549 5554 5558 5562 5566 5569 5573 5576 5579 5581
5475 5473 5473 5472 5471 5471 5471 5471 5471 5472 5473 5473 5474 5475 5477 5478 5480 5482 5484 5487 5489 5492 5495 5499 5502 5506 5510 5514 5519 5524 5528 5533 5537 5541 5545 5549 5553 5557 5561 5564 5567 5570 5573
5467 5466 5465 5465 5464 5464 5463 5463 5464 5465 5466 5467 5468 5469 5470 5471 5473 5475 5477 5479 5482 5485 5488 5491 5495 5498 5502 5507 5511 5516 5520 5525 5529 5533 5537 5541 5545 5549 5552 5556 5559 5562 5564
5459 5458 5458 5457 5456 5455 5455 5456 5457 5458 5459 5459 5461 5462 5463 5464 5466 5468 5470 5472 5474 5477 5480 5483 5487 5491 5495 5499 5503 5508 5512 5517 5521 5525 5529 5533 5537 5541 5544 5547 5550 5553 5555
5451 5450 5449 5449 5449 5448 5448 5449 5449 5450 5451 5452 5453 5454 5455 5456 5458 5460 5462 5464 5467 5470 5473 5476 5479 5483 5487 5491 5495 5500 5505 5509 5513 5518 5522 5526 5530 5533 5536 5539 5542 5544 5546
5443 5442 5442 5441 5441 5441 5441 5441 5442 5442 5443 5444 5445 5447 5448 5449 5451 5453 5455 5457 5460 5462 5465 5468 5472 5476 5480 5484 5488 5493 5497 5502 5506 5510 5514 5518 5522 5525 5528 5531 5534 5536 5538
5435 5434 5434 5434 5433 5433 5434 5434 5435 5435 5436 5437 5438 5439 5440 5442 5444 5446 5448 5450 5453 5456 5459 5462 5466 5470 5473 5478 5482 5486 5490 5494 5499 5503 5506 5510 5514 5517 5520 5523 5526 5528 5530
5427 5426 5426 5426 5426 5426 5427 5428 5428 5428 5429 5430 5431 5432 5434 5435 5437 5438 5441 5443 5446 5449 5452 5456 5460 5463 5467 5471 5475 5480 5483 5487 5492 5496 5499 5503 5506 5510 5513 5516 5518 5520 5522